Weather History for De Queen, AR

Change the Weather History Date:

Monday, November 14, 2011

  Actual Average Record
Temperature  
Mean Temperature 72 °F 53 °F  
Max Temperature 81 °F 66 °F 87 °F (1955)
Min Temperature 63 °F 40 °F 17 °F (1940)
Degree Days  
Heating Degree Days 0 12  
Month to date heating degree days 99 137  
Since 1 July heating degree days 249 270  
Cooling Degree Days 7 0  
Month to date cooling degree days 16 5  
Year to date cooling degree days 2510 1939  
Growing Degree Days 22 (Base 50)    
Moisture  
Dew Point 64 °F    
Average Humidity 71    
Maximum Humidity 87    
Minimum Humidity 54    
Precipitation  
Precipitation 0.01 in 0.18 in 2.21 in (1902)
Month to date precipitation 0.36 2.39  
Year to date precipitation 28.33 42.11  
Snow  
Snow 0.00 in - - ()
Month to date snowfall 0.0  
Since 1 July snowfall 0.0  
Since 1 September snowfall 0.0  
Snow Depth 0.00 in    
Sea Level Pressure  
Sea Level Pressure 29.77 in    
Wind  
Wind Speed 7 mph (South)    
Max Wind Speed 17 mph    
Max Gust Speed 24 mph    
Visibility 10 miles    
Events Rain    
T = Trace of Precipitation, MM = Missing Value Source: NWS Daily Summary

Daily Weather History Graph

Daily Weather History Graph

Search for Another Location

Airport:

Trip Planner

Search our weather history database for the weather conditions in past years. The results will help you decide how hot, cold, wet, or windy it might be!

Date:

Astronomy

Nov. 14, 2011 Rise Set
Actual Time 6:49 AM CST 5:14 PM CST
Civil Twilight 6:22 AM CST 5:41 PM CST
Nautical Twilight 5:52 AM CST 6:11 PM CST
Astronomical Twilight 5:22 AM CST 6:40 PM CST
Moon 8:25 PM CST (11/14) 10:04 AM CST (11/14)
Length of Visible Light 11h 18m
Length of Day
10h 25m
Waning Gibbous, 86% of the Moon is Illuminated
Nov 14
Waning Gibbous
Nov 18
Last Quarter
Nov 25
New
Dec 2
First Quarter
Dec 10
Full

Hourly Weather History & Observations

Time (CST) Temp. Heat Index Dew Point Humidity Pressure Visibility Wind Dir Wind Speed Gust Speed Precip Events Conditions
12:53 AM 71.1 °F - 64.9 °F 81% 29.78 in 10.0 mi South 6.9 mph - N/A   Partly Cloudy
1:14 AM 71.6 °F - 66.2 °F 83% 29.79 in 10.0 mi South 5.8 mph - N/A   Mostly Cloudy
1:53 AM 71.1 °F - 66.0 °F 84% 29.78 in 10.0 mi South 9.2 mph - N/A   Overcast
2:53 AM 72.0 °F - 66.0 °F 81% 29.77 in 10.0 mi Variable 6.9 mph - N/A   Overcast
3:53 AM 72.0 °F - 66.0 °F 81% 29.76 in 10.0 mi South 10.4 mph 18.4 mph N/A   Overcast
4:53 AM 73.0 °F - 66.0 °F 79% 29.76 in 10.0 mi South 10.4 mph - N/A   Overcast
5:53 AM 73.0 °F - 66.0 °F 79% 29.78 in 10.0 mi South 8.1 mph 19.6 mph N/A   Overcast
6:53 AM 73.0 °F - 66.0 °F 79% 29.79 in 10.0 mi South 8.1 mph - N/A   Overcast
8:53 AM 73.0 °F - 66.0 °F 79% 29.83 in 10.0 mi SSW 8.1 mph - N/A   Overcast
9:53 AM 73.9 °F - 64.9 °F 73% 29.83 in 10.0 mi South 12.7 mph 18.4 mph N/A   Overcast
10:46 AM 75.2 °F - 64.4 °F 69% 29.84 in 10.0 mi SSW 11.5 mph - N/A   Overcast
10:53 AM 75.0 °F - 64.0 °F 69% 29.83 in 10.0 mi SSW 10.4 mph - N/A   Overcast
11:53 AM 78.1 °F - 64.0 °F 62% 29.79 in 10.0 mi SSW 12.7 mph 20.7 mph N/A   Mostly Cloudy
12:53 PM 79.0 °F - 63.0 °F 58% 29.76 in 10.0 mi SSW 13.8 mph - N/A   Mostly Cloudy
1:53 PM 79.0 °F - 62.1 °F 56% 29.75 in 10.0 mi SSW 10.4 mph - N/A   Mostly Cloudy
2:53 PM 81.0 °F 82.2 °F 63.0 °F 54% 29.73 in 10.0 mi South 10.4 mph - N/A   Partly Cloudy
3:53 PM 79.0 °F - 62.1 °F 56% 29.73 in 10.0 mi South 5.8 mph - N/A   Scattered Clouds
4:53 PM 78.1 °F - 62.1 °F 58% 29.72 in 10.0 mi SSE 3.5 mph - N/A   Scattered Clouds
5:53 PM 75.9 °F - 62.1 °F 62% 29.73 in 10.0 mi SSE 3.5 mph - N/A   Partly Cloudy
6:53 PM 72.0 °F - 62.1 °F 71% 29.75 in 10.0 mi Calm Calm - N/A   Clear
7:53 PM 64.0 °F - 60.1 °F 87% 29.75 in 10.0 mi Calm Calm - N/A   Partly Cloudy
8:53 PM 72.0 °F - 62.1 °F 71% 29.75 in 10.0 mi Calm Calm - N/A   Scattered Clouds
9:53 PM 72.0 °F - 62.1 °F 71% 29.75 in 10.0 mi SSE 4.6 mph - N/A   Clear
10:53 PM 71.1 °F - 62.1 °F 73% 29.74 in 10.0 mi SE 4.6 mph - N/A   Partly Cloudy
11:53 PM 69.1 °F - 64.0 °F 84% 29.75 in 9.0 mi Calm Calm - 0.01 in Rain Light Rain